Regional Weather Roundup
Issued by NWS Green Bay, WI

Home | Current Version | Previous Version | Text Only | Print | Product List | Glossary On
Versions: 1 2 3 4 5 6 7 8 9 10 11 12 13 14 15 16 17 18 19 20 21 22 23 24 25 26 27 28 29 30 31 32 33 34 35 36 37 38 39 40 41 42 43 44 45 46 47 48 49 50
000
ASUS43 KGRB 270600
RWRGRB

NORTH-CENTRAL AND NORTHEAST WISCONSIN REGIONAL WEATHER ROUNDUP
NATIONAL WEATHER SERVICE GREEN BAY WI
1200 AM CST MON FEB 27 2017

WIZ005-009-010>012-018-019-270700-
NORTH CENTRAL WISCONSIN

CITY           SKY/WX    TMP DP  RH WIND       PRES   REMARKS
IRONWOOD       CLEAR      0  -4  83 CALM      29.94R
MANITOWISH WTR NOT AVBL
ARBOR VITAE    NOT AVBL
EAGLE RIVER    NOT AVBL
LAND O LAKES   NOT AVBL
RHINELANDER    CLEAR    N/A N/A N/A CALM      29.94R
PHILLIPS       NOT AVBL
ANTIGO         NOT AVBL
TOMAHAWK       NOT AVBL
MERRILL        NOT AVBL
$$

WIZ013-073-270700-
NORTHEAST WISCONSIN

CITY           SKY/WX    TMP DP  RH WIND       PRES   REMARKS
IRON MOUNTAIN  PTCLDY    10   5  80 CALM      29.95R
MARINETTE      CLOUDY    26  15  63 N9        30.01R
$$

WIZ017-030-035>037-045-270700-
CENTRAL WISCONSIN

CITY           SKY/WX    TMP DP  RH WIND       PRES   REMARKS
MEDFORD        NOT AVBL
WAUSAU         CLEAR     23  13  65 CALM      29.96R
MOSINEE        NOT AVBL
MARSHFIELD     MOCLDY    23  19  85 W7        29.96R
WISC RAPIDS    CLEAR     27  22  81 W6        30.00R
STEVENS POINT  NOT AVBL
WAUPACA        NOT AVBL
SHAWANO        MOCLDY    31  21  66 CALM      29.98R
CLINTONVILLE   NOT AVBL
WAUTOMA        CLEAR     27  22  81 W7        30.01
$$

WIZ038-039-048-051-270700-
FOX VALLEY

CITY           SKY/WX    TMP DP  RH WIND       PRES   REMARKS
NWS GREEN BAY  CLEAR     30  22  72 W8        29.99R
APPLETON       NOT AVBL
OSHKOSH        CLEAR     30  20  66 W6        30.00R
FOND DU LAC    CLEAR     29  20  69 SW5       30.01R
$$

WIZ022-050-052-270700-
EAST CENTRAL WISCONSIN

CITY           SKY/WX    TMP DP  RH WIND       PRES   REMARKS
EPHRAIM        NOT AVBL
WASHINGTON ISL NOT AVBL
STURGEON BAY   CLOUDY    28  22  78 N12       29.99R
MANITOWOC      NOT AVBL
SHEBOYGAN      CLEAR     31  21  66 W9        30.01R
$$

LMZ563-521-522-541>543-270700-
LAKESHORE

STATION/POSITION TIME  TEMP    WIND        PRES    VSBY  WAVE
                       AIR SEA DIR/SP/G                  HT/PER
                 (UTC) (F)     (DEG/KT/KT) (MB)    (MI)  (FT/S)
SHEBOYGAN LKSHOR 0500   35     250/  7/  8 1016.1R
KEWAUNEE LKSHORE 0530   31     270/  3/  6 1014.7R
NORTHPORT PIER   0540   27     320/ 15/ 20 1015.6R
SISTER BAY LKSHO 0505   28      10/ 11/ 15   N/A
CHAMBERS ISLAND  0540   26     320/ 12/ 15 1015.2R
MENOMINEE LKSHOR 0530   28     320/ 12/ 14 1014.6R
$$




USA.gov is the U.S. government's official web portal to all federal, state and local government web resources and services.